DELTA 1 DEB, 7044

Orbit data source: Space-Track

DELTA 1 DEB, 7044 is space debris in SSO originally from a launch on Tue, 06 Nov 1973 UTC launched from the Air Force Western Test Range (AFWTR). Debris objects in space refer to the collection of defunct objects orbiting the Earth. Examples of debris include non-operational satellites, rocket bodies, and fragments generated from explosions, collisions, or faulty payload assembly.

Loading next visibility...
Identifier
7044, 1973-086AL
Orbit
SSO
Last TLE update
2 hours ago
Origin
Manufacturer
Unknown
Mission
Spacecraft
Bus & Motor
Unknown
Mass
Unknown
Launch date (UTC)
1973-11-06 (52 years ago)
Launch vehicle
Unknown
Launch site
Air Force Western Test Range (AFWTR)
Object type
Payload
Rocket body
Debris
Shape & HBR
Unknown
Radar Cross Section
0.210 m², Medium (>0.1 m² and < 1m²)

Expand to show TLE details & history

TLE from 2 hours ago
0 DELTA 1 DEB
1  7044U 73086AL  25163.54972722 -.00000037  00000-0  80783-4 0  9995
2  7044 102.5515  17.5689 0088851 208.5929 179.2220 12.44510785343524
Epoch: 2025-06-12T13:11Z
TLE epoch observation values (Epoch: 2025-06-12T13:11:36.431Z)
Latitude
27.14572°
Longitude
-87.97208°
Altitude
1,560.415 km
Speed
7.058 km/s
True Right ascension
00h 44m 11s
True Declination
27° 01' 14"
Sunlit
Object was in daylight at epoch
Visualization orbit readout
Latitude
54.73912°
Longitude
116.9183°
Altitude
1,489.73 km
Speed
7.127 km/s
Apparent Right ascension
14h 12m 53s
Apparent Declination
13° 52' 02"
Sunlit
Object is in daylight
Visualization observer readout
Local Sidereal Time
02:02:47
Azimuth
356.966° N
Elevation
-36.165°
Doppler factor
1
Orbital elements
Apogee altitude
1,555.007 km
Perigee altitude
1,415.275 km
Semi-major axis
7,863.278 km
Eccentricity
0.00889
Inclination
102.5515°
RAAN
17.5689°
Arg. of periapsis
208.5929°
True anomaly
Unknown
Mean anomaly
179.222°
Eccentric anomaly
Unknown
Mean motion
3.1127 °/min
Orbital period
115.66 mins
BSTAR
0.000080783
Loading maneuver chart data...
Loading SW <> Apogee altitude chart data...
Loading historical data...
Loading historical data...
Loading historical data...
Loading historical data...
Loading historical data...
Loading historical data...
Loading historical data...

DELTA 1 DEB Visibility forecast

Observer location: undefined°, undefined°

Span
Click to sort rows by Start time (UTC) header in descending order
Start Az.
Max El. time (UTC)
Max El. Az.
Max El.
End time (UTC)
End Az.
6 mins2025-06-13 01:20:23.995Z66.765° ENE2025-06-13 01:23:23.995Z89.307° E13.536°2025-06-13 01:26:23.995Z112.162° ESE
14 mins2025-06-13 03:11:23.995Z22.047° NNE2025-06-13 03:18:23.995Z130.066° SE44.39°2025-06-13 03:25:23.995Z194.19° SSW
11 mins2025-06-13 05:05:23.995Z351.707° N2025-06-13 05:10:23.995Z310.456° NW22.88°2025-06-13 05:16:23.995Z260.303° W
12 mins2025-06-13 12:22:23.995Z100.12° ESE2025-06-13 12:27:23.995Z58.591° ENE25.186°2025-06-13 12:34:23.995Z2.217° NNE
15 mins2025-06-13 14:13:23.995Z169.531° S2025-06-13 14:20:23.995Z250.259° W43.924°2025-06-13 14:28:23.995Z337.522° N
|